STARLINK-1283, 45389

Orbit data source: Space-Track

STARLINK-1283, 45389 is a payload satellite owned by SpaceX/Seattle (US) in LEO that was launched on Wed, 18 Mar 2020 UTC via an FALCON 9 launch vehicle from the Air Force Eastern Test Range (AFETR). Payload-class satellites include a variety of spacecraft equipped with specific instruments for various scientific and technological missions. These include communications satellites like Starlink; space stations such as the ISS; scientific satellites like the Hubble; Earth observation satellites from companies like Planet Labs, Umbra, and HawkEye 360; GPS; miniature CubeSats for education and research; and military/defense satellites.

Loading next visibility...
Identifier
45389, 2020-019AF
Orbit
LEO
Last TLE update
19 hours ago
Origin
Manufacturer
SpaceX/Seattle
Mission
Operational Commercial Communications
Bus & Motor
STARLINK, Unknown motor
Mass
260 kg wet, ~248 kg dry
Launch date (UTC)
2020-03-18 (5 years ago)
Launch vehicle
FALCON 9
Launch site
Air Force Eastern Test Range (AFETR)
Object type
Payload
Rocket body
Debris
Shape & HBR
Box + 1 Pan, 8.86 m
Radar Cross Section
13.562 m², Large (>1 m²)

Expand to show TLE details & history

TLE from 19 hours ago
0 STARLINK-1283
1 45389U 20019AF  25182.45658274  .00001323  00000-0  10764-3 0  9990
2 45389  53.0540 194.4448 0001232  87.0777 273.0353 15.06413584292144
Epoch: 2025-07-01T10:57Z
TLE epoch observation values (Epoch: 2025-07-01T10:57:28.748Z)
Latitude
-0.00003°
Longitude
110.32322°
Altitude
548.004 km
Speed
7.589 km/s
True Right ascension
12h 57m 46s
True Declination
0° 00' 00"
Sunlit
Object was in daylight at epoch
Visualization orbit readout
Latitude
29.85725°
Longitude
132.14277°
Altitude
548.289 km
Speed
7.592 km/s
Apparent Right ascension
10h 56m 59s
Apparent Declination
-7° 23' 28"
Sunlit
Object is in daylight
Visualization observer readout
Local Sidereal Time
17:55:48
Azimuth
273.748° WNW
Elevation
-15.997°
Doppler factor
1
Orbital elements
Apogee altitude
548.294 km
Perigee altitude
546.587 km
Semi-major axis
6,925.578 km
Eccentricity
0.00012
Inclination
53.054°
RAAN
194.4448°
Arg. of periapsis
87.0777°
True anomaly
Unknown
Mean anomaly
273.0353°
Eccentric anomaly
Unknown
Mean motion
3.76582 °/min
Orbital period
95.6 mins
BSTAR
0.00010764
Loading maneuver chart data...
Loading SW <> Apogee altitude chart data...
Loading historical data...
Loading historical data...
Loading historical data...
Loading historical data...
Loading historical data...
Loading historical data...
Loading historical data...

STARLINK-1283 Visibility forecast

Observer location: undefined°, undefined°

Span
Click to sort rows by Start time (UTC) header in descending order
Start Az.
Max El. time (UTC)
Max El. Az.
Max El.
End time (UTC)
End Az.
5 mins2025-07-02 09:45:06.163Z332.079° NNW2025-07-02 09:47:06.163Z31.939° NE36.479°2025-07-02 09:50:06.163Z104.451° ESE
4 mins2025-07-02 11:25:06.163Z260.294° W2025-07-02 11:26:06.163Z238.948° WSW22.182°2025-07-02 11:29:06.163Z182.17° SSW
6 mins2025-07-03 02:57:06.163Z210.344° SW2025-07-03 02:59:06.163Z157.351° SSE41.128°2025-07-03 03:03:06.163Z56.675° ENE
5 mins2025-07-03 04:37:06.163Z292.421° WNW2025-07-03 04:39:06.163Z333.824° NNW23.314°2025-07-03 04:42:06.163Z27.839° NE
|